Regional Weather Roundup
Issued by NWS

Home | Current Version | Previous Version | Text Only | Print | Product List | Glossary Off
Versions: 1 2 3 4 5 6 7 8 9 10 11 12 13 14 15 16 17 18 19 20 21 22 23 24 25 26 27 28 29 30 31 32 33 34 35 36 37 38 39 40 41 42 43 44 45 46 47 48 49 50

000
ASUS43 KFSD 300610
RWRSD

WEATHER ROUNDUP FOR SOUTH DAKOTA
NATIONAL WEATHER SERVICE SIOUX FALLS SD
100 AM CDT SUN AUG 30 2015

NOTE: "FAIR" INDICATES FEW OR NO CLOUDS BELOW 12,000 FEET WITH NO
SIGNIFICANT WEATHER AND/OR OBSTRUCTIONS TO VISIBILITY.


SDZ001>005-009-010-012>017-300700-
NORTHWEST AND NORTH CENTRAL SOUTH DAKOTA

CITY           SKY/WX    TMP DP  RH WIND       PRES   REMARKS
BUFFALO          N/A     70  52  52 S7        29.78F
FAITH            N/A     68  54  60 SE14      29.85F
MOBRIDGE       CLEAR     71  68  90 SE10      29.83F
$$

SDZ012>016-024>037-041>051-057-063-072>074-300700-
SOUTHWEST AND SOUTH CENTRAL SOUTH DAKOTA

CITY           SKY/WX    TMP DP  RH WIND       PRES   REMARKS
RAPID CTY ARPT PTCLDY    70  46  42 S6        29.91F
PIERRE         CLEAR     75  60  59 S10       29.85F
CUSTER         PTCLDY    70  35  27 VRB3      30.11F
ELLSWORTH AFB  PTCLDY    72  46  39 S8        29.89F
PHILIP         CLEAR     73  50  44 W6        29.87F
PINE RIDGE     CLEAR     76  46  34 S18G29    29.97S
WINNER         FAIR      74  59  59 S17       29.92F
$$

SDZ004>011-016>023-039-040-300700-
NORTHEAST SOUTH DAKOTA

CITY           SKY/WX    TMP DP  RH WIND       PRES   REMARKS
ABERDEEN       CLEAR     66  64  93 S8        29.88F
WATERTOWN      FAIR      64  62  93 S10       29.94F
BROOKINGS      CLOUDY    64  61  88 S13       29.99F
SISSETON         N/A     64  62  93 S7        29.88F
$$

SDZ017-020-022-023-036>040-048>070-300700-
SOUTHEAST SOUTH DAKOTA

CITY           SKY/WX    TMP DP  RH WIND       PRES   REMARKS
SIOUX FALLS    FAIR      63  60  90 S9        30.00S
HURON          CLEAR     66  65  96 S10       29.91S
CHAMBERLAIN    CLEAR     67  61  80 S7        29.92S
MITCHELL       CLEAR     67  65  93 S10       29.94S
YANKTON        FAIR      63  61  94 SE8       29.98S
$$

ABBREVIATIONS USED IN REMARKS
   TC - TEMPERATURE IN CELSIUS
  WCI - WIND CHILL INDEX
   HX - HEAT INDEX
  VSB - VISIBILITY




USA.gov is the U.S. government's official web portal to all federal, state and local government web resources and services.